格洛纳斯-792 COSMOS 2395 [GLONASS]

导读 | 星芒AI

COSMOS 2395 是一颗俄罗斯 GLONASS 卫星,于 2014 年 12 月发射,用于增强全球导航卫星系统(GLONASS)的定位和导航能力。该卫星运行在中地球轨道,提供高精度的定位服务,广泛应用于民用和军用领域。作为 GLONASS 系统的一部分,它与其他卫星协同工作,提高全球范围内的信号覆盖和定位精度,支持交通运输、通信、测绘等多种应用。

基本信息
目录编号:
27619
目录名称:
COSMOS 2395 (GLONASS)
国际标识:
2002-060C
轨道中心:
EARTH
卫星名称:
格洛纳斯-792
卫星全名:
格洛纳斯-792 COSMOS 2395 [GLONASS]
卫星状态:
在轨 (已飞行8344 天)
发射日期:
2002-12-25 UTC
国别 :
俄罗斯(独联体) (CIS)
星等 :
--
轨道信息
数据来源 国际轨道数据
星历时间: 2025-10-28T12:54:13+0800
1天前
查看轨道信息
半长轴: 25507.889km
偏心率: 0.0013073
轨道倾角: 65.574°
近地点辐角 248.571°
升交点赤经 323.634°
平近点角 103.336°
近地点: 19096.407km
远地点: 19163.101km
周期: 675.727分钟
每日圈数: 2.131037
详细信息
平衡模式:
三轴稳定
覆盖范围:
全球
运营商:
列舍特涅夫卫星信息系统
运营商所在国:
俄罗斯
制造商(研发单位):
列舍特涅夫卫星信息系统
制造商所在国:
俄罗斯
使用方式:
暂无
卫星简介
格洛纳斯(GLONASS )是苏联/俄罗斯研制卫星导航系统。标准配置为24颗卫星,其中18颗卫星就能保证该系统为俄罗斯境内用户提供全部服务。该卫星已退役。
2D轨道图
3D轨道图
轨道高度分析图
轨道倾角分析图
轨道综合分析图
查看轨道综合分析图